| time (UTC) | temp F | wind direction | speed MPH | gust MPH | rain 1hr in | rain 24hr in | rain mn in | humidity % | barometer mb |
| 20260507234018 | 49 | 79 | 1.0 | 2.0 | 0.00 | 0.10 | 0.00 | 53 | 1009.0 |
| 20260507233516 | 50 | 41 | 0.0 | 5.0 | 0.00 | 0.10 | 0.00 | 55 | 1008.9 |
| 20260507233038 | 50 | 302 | 1.0 | 5.0 | 0.00 | 0.10 | 0.00 | 57 | 1009.0 |
| 20260507232518 | 51 | 65 | 2.0 | 5.0 | 0.00 | 0.10 | 0.00 | 51 | 1008.8 |
| 20260507232021 | 51 | 54 | 1.0 | 12.0 | 0.00 | 0.10 | 0.00 | 51 | 1008.8 |
| 20260507231537 | 52 | 198 | 1.0 | 12.0 | 0.00 | 0.10 | 0.00 | 46 | 1008.9 |
| 20260507231020 | 52 | 145 | 2.0 | 3.0 | 0.00 | 0.10 | 0.00 | 45 | 1008.9 |
| 20260507230520 | 52 | 100 | 2.0 | 3.0 | 0.00 | 0.10 | 0.00 | 46 | 1008.9 |
| 20260507230053 | 52 | 146 | 0.0 | 8.0 | 0.00 | 0.10 | 0.00 | 43 | 1008.8 |
| 20260507225520 | 52 | 158 | 4.0 | 8.0 | 0.00 | 0.11 | 0.00 | 41 | 1008.8 |
| 20260507225020 | 53 | 246 | 0.0 | 3.0 | 0.00 | 0.11 | 0.00 | 45 | 1008.9 |
| 20260507224536 | 53 | 103 | 1.0 | 3.0 | 0.00 | 0.11 | 0.00 | 44 | 1008.8 |
| 20260507224023 | 54 | 127 | 1.0 | 7.0 | 0.00 | 0.11 | 0.00 | 43 | 1008.8 |
| 20260507223527 | 55 | 250 | 2.0 | 7.0 | 0.00 | 0.11 | 0.00 | 41 | 1008.9 |
| 20260507223115 | 55 | 116 | 2.0 | 5.0 | 0.00 | 0.11 | 0.00 | 43 | 1008.9 |
| 20260507222516 | 55 | 89 | 1.0 | 11.0 | 0.00 | 0.11 | 0.00 | 42 | 1009.0 |
| 20260507222019 | 54 | 102 | 3.0 | 14.0 | 0.00 | 0.11 | 0.00 | 41 | 1008.9 |
| 20260507221537 | 54 | 141 | 3.0 | 14.0 | 0.00 | 0.11 | 0.00 | 40 | 1009.2 |
| 20260507221022 | 56 | 199 | 4.0 | 14.0 | 0.00 | 0.11 | 0.00 | 39 | 1009.0 |
| 20260507220517 | 56 | 103 | 1.0 | 6.0 | 0.00 | 0.11 | 0.00 | 45 | 1008.9 |
| 20260507220035 | 56 | 150 | 3.0 | 6.0 | 0.00 | 0.11 | 0.00 | 44 | 1008.8 |
| 20260507215521 | 55 | 97 | 2.0 | 13.0 | 0.00 | 0.15 | 0.00 | 44 | 1008.8 |
| 20260507215020 | 54 | 323 | 2.0 | 13.0 | 0.00 | 0.15 | 0.00 | 43 | 1008.8 |
| 20260507214542 | 55 | 71 | 7.0 | 13.0 | 0.00 | 0.15 | 0.00 | 43 | 1008.9 |
| 20260507214020 | 56 | 133 | 3.0 | 5.0 | 0.00 | 0.15 | 0.00 | 40 | 1008.8 |
| 20260507213521 | 57 | 48 | 2.0 | 5.0 | 0.00 | 0.15 | 0.00 | 39 | 1008.8 |
| 20260507213037 | 57 | 136 | 2.0 | 5.0 | 0.00 | 0.15 | 0.00 | 40 | 1008.8 |
| 20260507212521 | 57 | 271 | 1.0 | 7.0 | 0.00 | 0.15 | 0.00 | 40 | 1008.8 |
| 20260507212020 | 57 | 100 | 2.0 | 7.0 | 0.00 | 0.15 | 0.00 | 39 | 1008.8 |
| 20260507211533 | 57 | 178 | 3.0 | 7.0 | 0.00 | 0.15 | 0.00 | 40 | 1008.7 |
| 20260507211019 | 57 | 252 | 2.0 | 11.0 | 0.00 | 0.15 | 0.00 | 41 | 1008.6 |
| 20260507210520 | 56 | 55 | 2.0 | 11.0 | 0.00 | 0.15 | 0.00 | 42 | 1008.6 |
| 20260507210046 | 56 | 60 | 3.0 | 11.0 | 0.00 | 0.15 | 0.00 | 43 | 1008.6 |
| 20260507205522 | 56 | 220 | 2.0 | 10.0 | 0.00 | 0.29 | 0.00 | 41 | 1008.6 |
| 20260507205019 | 57 | 274 | 3.0 | 10.0 | 0.00 | 0.29 | 0.00 | 45 | 1008.7 |
| 20260507204542 | 56 | 286 | 2.0 | 10.0 | 0.00 | 0.29 | 0.00 | 43 | 1008.7 |
| 20260507204019 | 56 | 248 | 2.0 | 6.0 | 0.00 | 0.29 | 0.00 | 45 | 1008.8 |
| 20260507203521 | 56 | 79 | 2.0 | 9.0 | 0.00 | 0.29 | 0.00 | 46 | 1008.6 |
| 20260507203041 | 55 | 284 | 3.0 | 9.0 | 0.00 | 0.29 | 0.00 | 44 | 1008.6 |
| 20260507202517 | 56 | 34 | 2.0 | 10.0 | 0.00 | 0.29 | 0.00 | 45 | 1008.6 |
| 20260507202023 | 55 | 172 | 3.0 | 18.0 | 0.00 | 0.29 | 0.00 | 48 | 1008.6 |
| 20260507201541 | 55 | 117 | 3.0 | 18.0 | 0.00 | 0.29 | 0.00 | 43 | 1008.8 |
| 20260507201029 | 55 | 168 | 6.0 | 14.0 | 0.00 | 0.29 | 0.00 | 43 | 1009.0 |
| 20260507200521 | 54 | 229 | 2.0 | 9.0 | 0.00 | 0.29 | 0.00 | 47 | 1008.8 |
| 20260507200050 | 54 | 60 | 2.0 | 12.0 | 0.00 | 0.29 | 0.00 | 48 | 1008.8 |
| 20260507195520 | 52 | 98 | 4.0 | 12.0 | 0.00 | 0.61 | 0.00 | 50 | 1008.9 |
| 20260507195021 | 53 | 50 | 3.0 | 7.0 | 0.00 | 0.61 | 0.00 | 46 | 1009.1 |
| 20260507194539 | 53 | 13 | 2.0 | 6.0 | 0.00 | 0.61 | 0.00 | 47 | 1009.2 |
| 20260507194019 | 53 | 179 | 2.0 | 6.0 | 0.00 | 0.61 | 0.00 | 48 | 1008.9 |
| 20260507193517 | 53 | 146 | 2.0 | 5.0 | 0.00 | 0.61 | 0.00 | 48 | 1009.2 |
| 20260507193045 | 53 | 54 | 1.0 | 4.0 | 0.00 | 0.61 | 0.00 | 50 | 1009.0 |
| 20260507192520 | 54 | 99 | 2.0 | 4.0 | 0.00 | 0.61 | 0.00 | 48 | 1009.2 |
| 20260507192020 | 54 | 154 | 1.0 | 6.0 | 0.00 | 0.61 | 0.00 | 47 | 1009.2 |
| 20260507191538 | 54 | 136 | 2.0 | 6.0 | 0.00 | 0.61 | 0.00 | 46 | 1009.3 |
| 20260507191020 | 54 | 102 | 1.0 | 7.0 | 0.00 | 0.61 | 0.00 | 47 | 1009.3 |
| 20260507190520 | 55 | 124 | 2.0 | 7.0 | 0.00 | 0.61 | 0.00 | 44 | 1009.5 |
| 20260507190038 | 56 | 216 | 3.0 | 7.0 | 0.00 | 0.61 | 0.00 | 45 | 1009.3 |
| 20260507185519 | 56 | 335 | 2.0 | 7.0 | 0.00 | 0.80 | 0.00 | 45 | 1009.4 |
| 20260507185020 | 55 | 73 | 2.0 | 7.0 | 0.00 | 0.80 | 0.00 | 46 | 1009.4 |
| 20260507184536 | 54 | 116 | 2.0 | 7.0 | 0.00 | 0.80 | 0.00 | 46 | 1009.5 |
| 20260507184021 | 54 | 110 | 4.0 | 7.0 | 0.00 | 0.80 | 0.00 | 46 | 1009.7 |
| 20260507183521 | 54 | 348 | 3.0 | 13.0 | 0.00 | 0.80 | 0.00 | 50 | 1009.7 |
| 20260507183040 | 55 | 293 | 3.0 | 13.0 | 0.00 | 0.80 | 0.00 | 46 | 1009.7 |
| 20260507182520 | 55 | 118 | 2.0 | 9.0 | 0.00 | 0.80 | 0.00 | 46 | 1009.6 |
| 20260507182021 | 55 | 172 | 2.0 | 9.0 | 0.00 | 0.80 | 0.00 | 48 | 1009.6 |
| 20260507181535 | 55 | 105 | 5.0 | 9.0 | 0.00 | 0.80 | 0.00 | 48 | 1009.8 |
| 20260507181024 | 55 | 112 | 2.0 | 7.0 | 0.00 | 0.80 | 0.00 | 47 | 1009.7 |
| 20260507180521 | 54 | 133 | 3.0 | 7.0 | 0.00 | 0.80 | 0.00 | 46 | 1009.8 |
| 20260507180032 | 54 | 70 | 3.0 | 6.0 | 0.00 | 0.80 | 0.00 | 48 | 1009.9 |
| 20260507175520 | 54 | 129 | 3.0 | 15.0 | 0.00 | 0.98 | 0.00 | 51 | 1009.9 |
| 20260507175020 | 53 | 131 | 3.0 | 15.0 | 0.00 | 0.98 | 0.00 | 47 | 1009.9 |
| 20260507174548 | 54 | 274 | 2.0 | 8.0 | 0.00 | 0.98 | 0.00 | 45 | 1010.0 |
| 20260507174017 | 54 | 56 | 3.0 | 8.0 | 0.00 | 0.98 | 0.00 | 44 | 1009.8 |
| 20260507173519 | 55 | 217 | 1.0 | 5.0 | 0.00 | 0.98 | 0.00 | 50 | 1009.7 |
| 20260507173038 | 54 | 175 | 2.0 | 5.0 | 0.00 | 0.98 | 0.00 | 51 | 1009.8 |
| 20260507172517 | 53 | 273 | 2.0 | 4.0 | 0.00 | 0.98 | 0.00 | 44 | 1010.0 |
| 20260507172020 | 53 | 199 | 2.0 | 8.0 | 0.00 | 0.98 | 0.00 | 44 | 1009.8 |
| 20260507171539 | 53 | 141 | 2.0 | 10.0 | 0.00 | 0.98 | 0.00 | 46 | 1010.0 |
| 20260507171020 | 54 | 225 | 5.0 | 10.0 | 0.00 | 0.98 | 0.00 | 43 | 1010.1 |
| 20260507170520 | 55 | 16 | 3.0 | 8.0 | 0.00 | 0.98 | 0.00 | 44 | 1009.8 |
| 20260507170043 | 54 | 101 | 2.0 | 6.0 | 0.00 | 0.98 | 0.00 | 47 | 1009.9 |
| 20260507165520 | 53 | 359 | 3.0 | 15.0 | 0.00 | 1.26 | 0.00 | 48 | 1009.9 |
| 20260507165020 | 52 | 329 | 4.0 | 15.0 | 0.00 | 1.26 | 0.00 | 47 | 1010.1 |
| 20260507164534 | 52 | 59 | 3.0 | 9.0 | 0.00 | 1.26 | 0.00 | 50 | 1010.1 |
| 20260507164020 | 52 | 66 | 4.0 | 16.0 | 0.00 | 1.26 | 0.00 | 50 | 1010.4 |
| 20260507163519 | 52 | 19 | 4.0 | 16.0 | 0.00 | 1.26 | 0.00 | 50 | 1010.7 |
| 20260507163037 | 53 | 65 | 4.0 | 10.0 | 0.00 | 1.26 | 0.00 | 50 | 1010.8 |
| 20260507162520 | 53 | 151 | 1.0 | 6.0 | 0.00 | 1.26 | 0.00 | 55 | 1010.9 |
| 20260507162021 | 52 | 353 | 2.0 | 5.0 | 0.00 | 1.26 | 0.00 | 52 | 1010.9 |
| 20260507161544 | 52 | 176 | 2.0 | 5.0 | 0.00 | 1.26 | 0.00 | 49 | 1011.0 |
| 20260507161018 | 52 | 150 | 1.0 | 5.0 | 0.00 | 1.26 | 0.00 | 55 | 1010.9 |
| 20260507160523 | 51 | 237 | 1.0 | 10.0 | 0.00 | 1.26 | 0.00 | 51 | 1011.0 |
| 20260507160040 | 51 | 227 | 4.0 | 10.0 | 0.00 | 1.26 | 0.00 | 55 | 1010.9 |
| 20260507155520 | 50 | 55 | 3.0 | 7.0 | 0.00 | 1.43 | 0.00 | 57 | 1011.1 |
| 20260507155020 | 50 | 307 | 2.0 | 6.0 | 0.00 | 1.43 | 0.00 | 53 | 1011.2 |
| 20260507154534 | 51 | 315 | 2.0 | 4.0 | 0.00 | 1.43 | 0.00 | 57 | 1011.3 |
| 20260507154020 | 50 | 344 | 2.0 | 4.0 | 0.00 | 1.43 | 0.00 | 57 | 1011.6 |
| 20260507153516 | 50 | 49 | 1.0 | 5.0 | 0.00 | 1.43 | 0.00 | 57 | 1011.3 |
| 20260507153037 | 50 | 212 | 2.0 | 6.0 | 0.00 | 1.43 | 0.00 | 59 | 1011.5 |
| 20260507152521 | 50 | 248 | 1.0 | 6.0 | 0.00 | 1.43 | 0.00 | 60 | 1011.6 |
| 20260507152021 | 50 | 278 | 2.0 | 5.0 | 0.00 | 1.43 | 0.00 | 60 | 1011.7 |
| 20260507151536 | 51 | 328 | 1.0 | 5.0 | 0.00 | 1.43 | 0.00 | 61 | 1011.5 |
| 20260507151021 | 50 | 77 | 2.0 | 5.0 | 0.00 | 1.43 | 0.00 | 61 | 1011.5 |
| 20260507150517 | 50 | 46 | 3.0 | 8.0 | 0.00 | 1.43 | 0.00 | 57 | 1011.6 |
| 20260507150043 | 49 | 21 | 3.0 | 8.0 | 0.00 | 1.43 | 0.00 | 60 | 1011.7 |
| 20260507145519 | 49 | 312 | 2.0 | 7.0 | 0.00 | 1.53 | 0.00 | 62 | 1011.7 |
| 20260507145019 | 49 | 307 | 3.0 | 6.0 | 0.00 | 1.53 | 0.00 | 62 | 1011.6 |
| 20260507144539 | 49 | 359 | 4.0 | 10.0 | 0.00 | 1.53 | 0.00 | 61 | 1011.4 |
| 20260507144017 | 49 | 326 | 2.0 | 10.0 | 0.00 | 1.53 | 0.00 | 64 | 1011.5 |
| 20260507143520 | 49 | 297 | 4.0 | 10.0 | 0.00 | 1.53 | 0.00 | 60 | 1011.6 |
| 20260507143037 | 49 | 140 | 2.0 | 5.0 | 0.00 | 1.53 | 0.00 | 63 | 1011.6 |
| 20260507142519 | 49 | 67 | 2.0 | 5.0 | 0.00 | 1.53 | 0.00 | 64 | 1011.6 |
| 20260507142019 | 48 | 88 | 1.0 | 8.0 | 0.00 | 1.53 | 0.00 | 67 | 1011.3 |
| 20260507141535 | 48 | 178 | 4.0 | 9.0 | 0.00 | 1.53 | 0.00 | 63 | 1011.4 |
| 20260507141019 | 48 | 58 | 3.0 | 9.0 | 0.00 | 1.53 | 0.00 | 67 | 1011.5 |
| 20260507140523 | 48 | 108 | 3.0 | 9.0 | 0.00 | 1.53 | 0.00 | 63 | 1011.6 |
| 20260507140036 | 47 | 77 | 3.0 | 6.0 | 0.00 | 1.53 | 0.00 | 66 | 1011.4 |
| 20260507135521 | 47 | 91 | 3.0 | 6.0 | 0.00 | 1.56 | 0.00 | 67 | 1011.5 |
| 20260507135024 | 47 | 211 | 2.0 | 10.0 | 0.00 | 1.56 | 0.00 | 71 | 1011.4 |
| 20260507134534 | 47 | 30 | 2.0 | 10.0 | 0.00 | 1.56 | 0.00 | 69 | 1011.5 |
| 20260507134020 | 47 | 184 | 4.0 | 10.0 | 0.00 | 1.56 | 0.00 | 69 | 1011.4 |
| 20260507133521 | 46 | 319 | 1.0 | 10.0 | 0.00 | 1.56 | 0.00 | 76 | 1011.5 |
| 20260507133038 | 46 | 225 | 4.0 | 10.0 | 0.00 | 1.56 | 0.00 | 72 | 1011.6 |
| 20260507132522 | 45 | 127 | 3.0 | 8.0 | 0.00 | 1.56 | 0.00 | 76 | 1011.4 |
| 20260507132019 | 45 | 109 | 3.0 | 8.0 | 0.00 | 1.56 | 0.00 | 77 | 1011.5 |
| 20260507131537 | 45 | 77 | 4.0 | 8.0 | 0.00 | 1.56 | 0.00 | 78 | 1011.4 |
| 20260507131022 | 45 | 119 | 0.0 | 4.0 | 0.00 | 1.56 | 0.00 | 80 | 1011.4 |
| 20260507130520 | 44 | 96 | 1.0 | 4.0 | 0.00 | 1.56 | 0.00 | 80 | 1011.4 |
| 20260507130054 | 44 | 127 | 2.0 | 5.0 | 0.00 | 1.56 | 0.00 | 81 | 1011.4 |
| 20260507125523 | 43 | 146 | 2.0 | 5.0 | 0.00 | 1.56 | 0.00 | 81 | 1011.5 |
| 20260507125019 | 43 | 175 | 0.0 | 5.0 | 0.00 | 1.56 | 0.00 | 84 | 1011.4 |
| 20260507124536 | 43 | 238 | 0.0 | 5.0 | 0.00 | 1.56 | 0.00 | 83 | 1011.5 |
| 20260507124019 | 43 | 98 | 2.0 | 10.0 | 0.00 | 1.56 | 0.00 | 82 | 1011.6 |
| 20260507123517 | 43 | 199 | 2.0 | 10.0 | 0.00 | 1.56 | 0.00 | 81 | 1011.5 |
| 20260507123040 | 43 | 229 | 4.0 | 10.0 | 0.00 | 1.56 | 0.00 | 81 | 1011.5 |
| 20260507122517 | 43 | 182 | 1.0 | 6.0 | 0.00 | 1.56 | 0.00 | 83 | 1011.4 |
| 20260507122021 | 43 | 224 | 2.0 | 6.0 | 0.00 | 1.56 | 0.00 | 84 | 1011.4 |
| 20260507121538 | 43 | 166 | 2.0 | 6.0 | 0.00 | 1.56 | 0.00 | 83 | 1011.5 |
| 20260507121020 | 43 | 229 | 3.0 | 9.0 | 0.00 | 1.56 | 0.00 | 85 | 1011.4 |
| 20260507120520 | 42 | 222 | 3.0 | 9.0 | 0.00 | 1.56 | 0.00 | 86 | 1011.4 |
| 20260507120040 | 42 | 176 | 1.0 | 5.0 | 0.00 | 1.56 | 0.00 | 84 | 1011.3 |
| 20260507115520 | 42 | 302 | 1.0 | 5.0 | 0.00 | 1.56 | 0.00 | 85 | 1011.2 |
| 20260507115022 | 42 | 157 | 1.0 | 4.0 | 0.00 | 1.56 | 0.00 | 87 | 1011.3 |
| 20260507114537 | 42 | 136 | 1.0 | 4.0 | 0.00 | 1.56 | 0.00 | 86 | 1011.2 |
| 20260507114018 | 42 | 127 | 0.0 | 4.0 | 0.00 | 1.56 | 0.00 | 87 | 1011.0 |
| 20260507113517 | 42 | 328 | 1.0 | 6.0 | 0.00 | 1.56 | 0.00 | 88 | 1011.0 |
| 20260507113037 | 42 | 134 | 1.0 | 8.0 | 0.00 | 1.56 | 0.00 | 88 | 1010.9 |
| 20260507112519 | 42 | 285 | 2.0 | 8.0 | 0.00 | 1.56 | 0.00 | 87 | 1010.8 |
| 20260507112016 | 42 | 276 | 1.0 | 8.0 | 0.00 | 1.56 | 0.00 | 89 | 1010.9 |
| 20260507111537 | 42 | 136 | 2.0 | 8.0 | 0.00 | 1.56 | 0.00 | 89 | 1010.9 |
| 20260507111017 | 42 | 323 | 1.0 | 5.0 | 0.00 | 1.56 | 0.00 | 91 | 1010.9 |
| 20260507110517 | 42 | 121 | 2.0 | 11.0 | 0.00 | 1.56 | 0.00 | 91 | 1011.0 |
| 20260507110036 | 42 | 205 | 3.0 | 11.0 | 0.00 | 1.56 | 0.00 | 91 | 1010.9 |
| 20260507105517 | 42 | 0 | 1.0 | 6.0 | 0.00 | 1.56 | 0.00 | 93 | 1010.9 |
| 20260507105017 | 42 | 48 | 1.0 | 6.0 | 0.00 | 1.56 | 0.00 | 93 | 1010.7 |
| 20260507104535 | 42 | 275 | 1.0 | 6.0 | 0.00 | 1.56 | 0.00 | 93 | 1010.8 |
| 20260507104019 | 43 | 295 | 2.0 | 5.0 | 0.00 | 1.56 | 0.00 | 95 | 1010.7 |
| 20260507103518 | 43 | 345 | 1.0 | 5.0 | 0.00 | 1.56 | 0.00 | 95 | 1010.6 |
| 20260507103036 | 43 | 236 | 0.0 | 5.0 | 0.00 | 1.56 | 0.00 | 95 | 1010.5 |
| 20260507102518 | 43 | 308 | 1.0 | 7.0 | 0.00 | 1.56 | 0.00 | 96 | 1010.4 |
| 20260507102021 | 43 | 348 | 1.0 | 7.0 | 0.00 | 1.56 | 0.00 | 96 | 1010.4 |
| 20260507101540 | 44 | 205 | 1.0 | 7.0 | 0.00 | 1.56 | 0.00 | 96 | 1010.3 |
| 20260507101023 | 44 | 218 | 1.0 | 3.0 | 0.00 | 1.56 | 0.00 | 96 | 1010.2 |
| 20260507100519 | 44 | 16 | 1.0 | 3.0 | 0.00 | 1.56 | 0.00 | 96 | 1010.2 |
| 20260507100048 | 43 | 240 | 0.0 | 2.0 | 0.00 | 1.56 | 0.00 | 96 | 1010.2 |
| 20260507095520 | 44 | 209 | 1.0 | 2.0 | 0.00 | 1.56 | 0.00 | 96 | 1010.1 |
| 20260507095017 | 44 | 211 | 0.0 | 3.0 | 0.00 | 1.56 | 0.00 | 96 | 1010.0 |
| 20260507094537 | 44 | 54 | 1.0 | 4.0 | 0.00 | 1.56 | 0.00 | 96 | 1010.0 |
| 20260507094017 | 44 | 258 | 0.0 | 4.0 | 0.00 | 1.56 | 0.00 | 96 | 1009.9 |
| 20260507093523 | 43 | 125 | 0.0 | 4.0 | 0.00 | 1.56 | 0.00 | 96 | 1010.0 |
| 20260507093035 | 43 | 0 | 0.0 | 4.0 | 0.00 | 1.56 | 0.00 | 96 | 1010.2 |
| 20260507092517 | 43 | 200 | 0.0 | 4.0 | 0.00 | 1.56 | 0.00 | 96 | 1010.2 |
| 20260507092020 | 43 | 155 | 2.0 | 4.0 | 0.00 | 1.56 | 0.00 | 96 | 1010.2 |
| 20260507091533 | 43 | 0 | 0.0 | 1.0 | 0.00 | 1.56 | 0.00 | 96 | 1010.2 |
| 20260507091017 | 44 | 0 | 0.0 | 2.0 | 0.00 | 1.56 | 0.00 | 96 | 1010.2 |
| 20260507090520 | 43 | 162 | 0.0 | 2.0 | 0.00 | 1.56 | 0.00 | 96 | 1010.2 |
| 20260507090034 | 44 | 79 | 0.0 | 3.0 | 0.00 | 1.56 | 0.00 | 96 | 1010.2 |
| 20260507085520 | 43 | 3 | 0.0 | 3.0 | 0.00 | 1.56 | 0.00 | 96 | 1010.3 |
| 20260507085020 | 43 | 96 | 0.0 | 3.0 | 0.00 | 1.56 | 0.00 | 96 | 1010.3 |
| 20260507084537 | 43 | 113 | 0.0 | 2.0 | 0.00 | 1.56 | 0.00 | 96 | 1010.3 |
| 20260507084019 | 43 | 153 | 1.0 | 2.0 | 0.00 | 1.56 | 0.00 | 96 | 1010.4 |
| 20260507083517 | 43 | 224 | 0.0 | 3.0 | 0.00 | 1.56 | 0.00 | 96 | 1010.6 |
| 20260507083051 | 43 | 293 | 0.0 | 3.0 | 0.00 | 1.56 | 0.00 | 96 | 1010.6 |
| 20260507082522 | 43 | 129 | 0.0 | 1.0 | 0.00 | 1.56 | 0.00 | 96 | 1010.6 |
| 20260507082019 | 43 | 127 | 0.0 | 1.0 | 0.00 | 1.56 | 0.00 | 96 | 1010.6 |
| 20260507081538 | 43 | 356 | 0.0 | 1.0 | 0.00 | 1.56 | 0.00 | 96 | 1010.5 |
| 20260507081019 | 44 | 0 | 0.0 | 1.0 | 0.00 | 1.56 | 0.00 | 96 | 1010.6 |
| 20260507080518 | 44 | 0 | 0.0 | 1.0 | 0.00 | 1.56 | 0.00 | 96 | 1010.6 |
| 20260507080036 | 44 | 356 | 0.0 | 1.0 | 0.00 | 1.56 | 0.00 | 96 | 1010.4 |
| 20260507075520 | 44 | 0 | 0.0 | 1.0 | 0.00 | 1.56 | 0.00 | 96 | 1010.6 |
| 20260507075019 | 44 | 0 | 0.0 | 1.0 | 0.00 | 1.56 | 0.00 | 96 | 1010.6 |
| 20260507074535 | 44 | 153 | 0.0 | 0.0 | 0.00 | 1.56 | 0.00 | 96 | 1010.4 |
| 20260507074017 | 44 | 0 | 0.0 | 1.0 | 0.00 | 1.56 | 0.00 | 96 | 1010.4 |
| 20260507073520 | 44 | 0 | 0.0 | 1.0 | 0.00 | 1.56 | 0.00 | 96 | 1010.6 |
| 20260507073035 | 44 | 0 | 0.0 | 2.0 | 0.00 | 1.56 | 0.00 | 96 | 1010.4 |
| 20260507072519 | 44 | 191 | 0.0 | 2.0 | 0.00 | 1.56 | 0.00 | 96 | 1010.6 |
| 20260507072019 | 44 | 162 | 0.0 | 2.0 | 0.00 | 1.56 | 0.00 | 96 | 1010.5 |
| 20260507071536 | 44 | 150 | 1.0 | 2.0 | 0.00 | 1.56 | 0.00 | 96 | 1010.4 |
| 20260507071020 | 44 | 244 | 0.0 | 2.0 | 0.00 | 1.56 | 0.00 | 96 | 1010.3 |
| 20260507070522 | 44 | 0 | 0.0 | 0.0 | 0.00 | 1.56 | 0.00 | 96 | 1010.4 |
| 20260507070038 | 44 | 0 | 0.0 | 0.0 | 0.00 | 1.56 | 0.00 | 96 | 1010.3 |
| 20260507065521 | 44 | 0 | 0.0 | 0.0 | 0.00 | 1.56 | 0.00 | 96 | 1010.1 |
| 20260507065018 | 44 | 0 | 0.0 | 0.0 | 0.00 | 1.56 | 0.00 | 96 | 1010.1 |
| 20260507064540 | 44 | 0 | 0.0 | 0.0 | 0.00 | 1.56 | 0.00 | 96 | 1010.1 |
| 20260507064019 | 44 | 0 | 0.0 | 0.0 | 0.00 | 1.56 | 0.00 | 96 | 1010.1 |
| 20260507063517 | 44 | 0 | 0.0 | 0.0 | 0.00 | 1.56 | 0.00 | 96 | 1010.2 |
| 20260507063037 | 44 | 0 | 0.0 | 0.0 | 0.00 | 1.56 | 0.00 | 96 | 1010.2 |
| 20260507062519 | 44 | 0 | 0.0 | 0.0 | 0.00 | 1.56 | 0.00 | 96 | 1010.2 |
| 20260507062017 | 44 | 0 | 0.0 | 0.0 | 0.00 | 1.56 | 0.00 | 96 | 1010.1 |
| 20260507061532 | 44 | 0 | 0.0 | 0.0 | 0.00 | 1.56 | 0.00 | 96 | 1009.9 |
| 20260507061020 | 44 | 0 | 0.0 | 0.0 | 0.00 | 1.56 | 0.00 | 96 | 1009.7 |
| 20260507060520 | 44 | 0 | 0.0 | 0.0 | 0.00 | 1.56 | 0.00 | 96 | 1009.9 |
| 20260507060035 | 44 | 0 | 0.0 | 0.0 | 0.00 | 1.56 | 0.00 | 96 | 1010.1 |
| 20260507055519 | 44 | 0 | 0.0 | 0.0 | 0.00 | 1.56 | 0.00 | 96 | 1010.2 |
| 20260507055020 | 44 | 0 | 0.0 | 1.0 | 0.00 | 1.56 | 0.00 | 96 | 1010.4 |
| 20260507054539 | 44 | 0 | 0.0 | 2.0 | 0.00 | 1.56 | 0.00 | 96 | 1010.5 |
| 20260507054019 | 44 | 269 | 0.0 | 2.0 | 0.00 | 1.56 | 0.00 | 96 | 1010.3 |
| 20260507053516 | 44 | 116 | 1.0 | 2.0 | 0.00 | 1.56 | 0.00 | 96 | 1010.2 |
| 20260507053037 | 44 | 199 | 0.0 | 2.0 | 0.00 | 1.56 | 0.00 | 96 | 1010.4 |
| 20260507052517 | 43 | 200 | 0.0 | 1.0 | 0.00 | 1.56 | 0.00 | 96 | 1010.4 |
| 20260507052016 | 43 | 86 | 0.0 | 1.0 | 0.00 | 1.56 | 0.00 | 96 | 1010.7 |
| 20260507051537 | 43 | 89 | 0.0 | 1.0 | 0.00 | 1.56 | 0.00 | 96 | 1010.4 |
| 20260507051018 | 43 | 351 | 0.0 | 1.0 | 0.00 | 1.56 | 0.00 | 96 | 1010.6 |
| 20260507050520 | 43 | 343 | 0.0 | 1.0 | 0.00 | 1.56 | 0.00 | 96 | 1010.6 |
| 20260507050039 | 43 | 0 | 0.0 | 3.0 | 0.00 | 1.56 | 0.00 | 96 | 1010.7 |
| 20260507045519 | 43 | 0 | 0.0 | 3.0 | 0.00 | 1.56 | 0.00 | 96 | 1010.7 |
| 20260507045020 | 43 | 154 | 1.0 | 3.0 | 0.00 | 1.56 | 0.00 | 96 | 1010.8 |
| 20260507044538 | 43 | 0 | 0.0 | 1.0 | 0.00 | 1.56 | 0.00 | 96 | 1010.6 |
| 20260507044019 | 43 | 0 | 0.0 | 1.0 | 0.00 | 1.56 | 0.00 | 96 | 1010.4 |
| 20260507043519 | 43 | 0 | 0.0 | 1.0 | 0.00 | 1.56 | 0.00 | 96 | 1010.3 |
| 20260507043032 | 43 | 0 | 0.0 | 0.0 | 0.00 | 1.56 | 0.00 | 96 | 1010.4 |
| 20260507042519 | 43 | 175 | 0.0 | 0.0 | 0.00 | 1.56 | 0.00 | 95 | 1010.6 |
| 20260507042018 | 43 | 0 | 0.0 | 0.0 | 0.00 | 1.56 | 0.00 | 95 | 1010.4 |
| 20260507041542 | 43 | 0 | 0.0 | 0.0 | 0.00 | 1.56 | 0.00 | 95 | 1010.6 |
| 20260507041019 | 43 | 165 | 0.0 | 1.0 | 0.00 | 1.56 | 0.00 | 95 | 1010.3 |
| 20260507040516 | 44 | 164 | 0.0 | 1.0 | 0.00 | 1.56 | 0.00 | 95 | 1010.2 |
| 20260507040036 | 44 | 0 | 0.0 | 1.0 | 0.00 | 1.56 | 0.00 | 95 | 1010.3 |
| 20260507035519 | 44 | 243 | 0.0 | 1.0 | 0.00 | 1.56 | 1.56 | 95 | 1010.2 |
| 20260507035016 | 44 | 216 | 0.0 | 1.0 | 0.00 | 1.56 | 1.56 | 95 | 1010.4 |
| 20260507034537 | 44 | 217 | 0.0 | 4.0 | 0.00 | 1.56 | 1.56 | 95 | 1010.6 |
| 20260507034018 | 44 | 0 | 0.0 | 4.0 | 0.00 | 1.56 | 1.56 | 95 | 1010.5 |
| 20260507033518 | 44 | 203 | 1.0 | 4.0 | 0.00 | 1.56 | 1.56 | 95 | 1010.5 |
| 20260507033036 | 44 | 218 | 0.0 | 1.0 | 0.00 | 1.56 | 1.56 | 96 | 1010.5 |
| 20260507032523 | 44 | 255 | 0.0 | 2.0 | 0.00 | 1.56 | 1.56 | 95 | 1010.6 |
| 20260507032016 | 44 | 245 | 0.0 | 2.0 | 0.00 | 1.56 | 1.56 | 95 | 1010.5 |
| 20260507031532 | 44 | 117 | 0.0 | 1.0 | 0.00 | 1.56 | 1.56 | 95 | 1010.5 |
| 20260507031020 | 44 | 150 | 0.0 | 2.0 | 0.00 | 1.56 | 1.56 | 95 | 1010.7 |
| 20260507030519 | 44 | 163 | 0.0 | 2.0 | 0.00 | 1.56 | 1.56 | 95 | 1010.7 |
| 20260507030032 | 44 | 113 | 0.0 | 1.0 | 0.01 | 1.56 | 1.56 | 95 | 1010.7 |
| 20260507025516 | 44 | 0 | 0.0 | 0.0 | 0.01 | 1.57 | 1.56 | 95 | 1010.6 |
| 20260507025016 | 44 | 0 | 0.0 | 0.0 | 0.01 | 1.57 | 1.56 | 96 | 1010.7 |
| 20260507024532 | 44 | 0 | 0.0 | 0.0 | 0.01 | 1.57 | 1.56 | 95 | 1010.7 |
| 20260507024023 | 44 | 0 | 0.0 | 0.0 | 0.02 | 1.57 | 1.56 | 95 | 1010.6 |
| 20260507023525 | 44 | 0 | 0.0 | 0.0 | 0.02 | 1.57 | 1.56 | 95 | 1010.7 |
| 20260507023040 | 44 | 0 | 0.0 | 0.0 | 0.02 | 1.57 | 1.56 | 95 | 1010.8 |
| 20260507022520 | 44 | 0 | 0.0 | 0.0 | 0.02 | 1.57 | 1.56 | 95 | 1010.9 |
| 20260507022018 | 44 | 0 | 0.0 | 0.0 | 0.02 | 1.57 | 1.56 | 95 | 1010.9 |
| 20260507021536 | 44 | 0 | 0.0 | 0.0 | 0.03 | 1.57 | 1.56 | 95 | 1010.9 |
| 20260507021022 | 44 | 0 | 0.0 | 0.0 | 0.04 | 1.57 | 1.56 | 95 | 1010.8 |
| 20260507020519 | 44 | 0 | 0.0 | 0.0 | 0.04 | 1.57 | 1.56 | 95 | 1010.9 |
| 20260507020034 | 44 | 0 | 0.0 | 0.0 | 0.03 | 1.56 | 1.55 | 95 | 1010.9 |
| 20260507015517 | 44 | 0 | 0.0 | 0.0 | 0.04 | 1.56 | 1.55 | 95 | 1010.9 |
| 20260507015020 | 44 | 0 | 0.0 | 0.0 | 0.04 | 1.56 | 1.55 | 95 | 1011.0 |
| 20260507014542 | 44 | 0 | 0.0 | 0.0 | 0.04 | 1.56 | 1.55 | 95 | 1010.9 |
| 20260507014019 | 44 | 0 | 0.0 | 0.0 | 0.04 | 1.55 | 1.54 | 95 | 1010.7 |
| 20260507013519 | 44 | 0 | 0.0 | 0.0 | 0.04 | 1.55 | 1.54 | 95 | 1010.8 |
| 20260507013042 | 44 | 0 | 0.0 | 0.0 | 0.04 | 1.55 | 1.54 | 95 | 1010.8 |
| 20260507012517 | 44 | 0 | 0.0 | 0.0 | 0.05 | 1.55 | 1.54 | 95 | 1010.8 |
| 20260507012017 | 44 | 0 | 0.0 | 1.0 | 0.04 | 1.54 | 1.53 | 95 | 1010.7 |
| 20260507011532 | 44 | 0 | 0.0 | 1.0 | 0.04 | 1.54 | 1.53 | 95 | 1010.8 |
| 20260507011016 | 44 | 0 | 0.0 | 2.0 | 0.03 | 1.53 | 1.52 | 95 | 1010.8 |
| 20260507010517 | 45 | 0 | 0.0 | 2.0 | 0.03 | 1.53 | 1.52 | 95 | 1010.8 |
| 20260507010034 | 45 | 0 | 0.0 | 1.0 | 0.04 | 1.53 | 1.52 | 95 | 1010.6 |
| 20260507005523 | 45 | 0 | 0.0 | 1.0 | 0.03 | 1.52 | 1.51 | 95 | 1010.6 |
| 20260507005015 | 45 | 0 | 0.0 | 1.0 | 0.03 | 1.52 | 1.51 | 95 | 1010.4 |
| 20260507004541 | 45 | 0 | 0.0 | 0.0 | 0.04 | 1.52 | 1.51 | 95 | 1010.4 |
| 20260507004017 | 45 | 0 | 0.0 | 1.0 | 0.03 | 1.51 | 1.50 | 95 | 1010.4 |
| 20260507003518 | 45 | 0 | 0.0 | 1.0 | 0.03 | 1.51 | 1.50 | 95 | 1010.2 |
| 20260507003034 | 45 | 154 | 0.0 | 1.0 | 0.04 | 1.51 | 1.50 | 95 | 1010.2 |
| 20260507002519 | 45 | 285 | 0.0 | 2.0 | 0.03 | 1.50 | 1.49 | 95 | 1010.0 |
| 20260507002019 | 45 | 126 | 0.0 | 2.0 | 0.03 | 1.50 | 1.49 | 95 | 1009.9 |
| 20260507001531 | 46 | 0 | 0.0 | 2.0 | 0.03 | 1.50 | 1.49 | 95 | 1009.8 |
| 20260507001018 | 46 | 150 | 1.0 | 2.0 | 0.03 | 1.50 | 1.49 | 95 | 1009.6 |
| 20260507000518 | 46 | 0 | 0.0 | 3.0 | 0.03 | 1.50 | 1.49 | 95 | 1009.6 |
| 20260507000038 | 46 | 173 | 0.0 | 3.0 | 0.02 | 1.49 | 1.48 | 95 | 1009.4 |
| 20260506235519 | 46 | 200 | 0.0 | 2.0 | 0.02 | 1.49 | 1.48 | 95 | 1009.3 |
| 20260506235016 | 46 | 245 | 0.0 | 1.0 | 0.01 | 1.48 | 1.47 | 95 | 1009.1 |
| 20260506234537 | 47 | 117 | 0.0 | 1.0 | 0.01 | 1.48 | 1.47 | 95 | 1009.1 |